www.pogodaiklimat.ru

Погода и климат >> Архив погоды >> Россия >> Челябинская область >> Магнитогорск


АРХИВ ПОГОДЫ в Магнитогорске

Время (UTC), дата Ветер
(напр.,м/с)
 
Видим.   Явления Облачность Т
(С)
Тd
(С)
f
(%)
Тe
(С)
Тes
(С)
Комфортность P
(гПа)
Po
(гПа)
Тmin
(С)
Tmax
(С)
R
(мм)
R24
(мм)
S
(см)
12 11.06 З 4
{13}
20 км гроза без осадков {ливн. осадки} 9/9 600 м
[Cb calv]
+23.5 +11.2 46 +25 +25 комфорт 1014.2 970.7
15 11.06 З 4
{11}
20 км {гроза} 8/0
[Ac cuf]
+24.9 +12.6 46 +27 +27 жарко 1012.9 969.7 +27.6 3
18 11.06 ЮЗ 3 10 км {гроза} 8/0
[Ac lent]
+20.2 +13.3 65 +23 +23 комфорт 1013.6 969.7
21 11.06 З 2 10 км ясно +19.1 +13.3 69 +21 +21 комфорт 1012.8 968.8
00 12.06 Ю 1 20 км ясно +14.7 +11.8 83 +15 +15 тепло 1013.0 968.2
03 12.06 Ю 2 20 км ясно +22.3 +16.4 69 +27 +31 душно 1012.8 968.0 +14.6
06 12.06 З 4
{10}
20 км ясно +25.0 +5.8 29 +25 +34 комфорт 1009.6 966.4
09 12.06 СЗ 4
{10}
20 км ясно +26.5 +5.0 25 +26 +36 жарко 1008.5 965.6
12 12.06 З 5
{11}
20 км ясно +26.4 +3.1 22 +25 +29 комфорт 1007.8 964.9
15 12.06 СЗ 5 20 км ясно +24.0 +4.8 29 +24 +24 комфорт 1007.4 964.2 +27.3
18 12.06 З 2
{10}
10 км ясно +19.8 +6.1 41 +21 +21 комфорт 1008.3 964.4
21 12.06 ЮЗ 3 10 км ясно +16.2 +7.4 56 +16 +16 тепло 1007.6 963.3
00 13.06 СЗ 4
{11}
20 км 8/8 600 м
[Sc]
+16.3 +7.2 55 +16 +16 тепло 1007.8 963.5
03 13.06 СЗ 2 20 км {дождь} 10/10 600 м
[Sc]
+14.8 +7.3 61 +15 +15 по сезону 1008.8 964.2 +14.5 0.0
06 13.06 З 4 20 км {дождь} 8/8 600 м
[Sc]
+16.8 +7.0 52 +16 +18 прохладно 1008.6 964.1
09 13.06 С 6
{11}
20 км 3/3 600 м
[Cu hum]
+18.1 -0.4 29 +18 +22 прохладно 1009.0 964.8
12 13.06 С 8-11
{13}
20 км 4/4 600 м
[Cu hum]
+17.8 -0.7 29 +17 +18 холодно 1010.1 965.8
15 13.06 С 7-10
{12}
20 км 3/3 600 м
[Sc]
+14.1 -2.1 33 +12 +12 очень
холодно
1012.1 967.2 +19.6
18 13.06 С 4
{11}
10 км ясно +9.2 -1.8 46 +7 +7 очень
холодно
1015.2 969.4
21 13.06 С 4 10 км ясно +7.2 -0.6 58 +4 +4 очень
холодно
1016.2 970.0
00 14.06 СЗ 3 20 км 3/3 600 м
[Sc]
+6.3 -0.2 63 +4 +4 холодно 1016.5 970.2
03 14.06 С 3 20 км 3/3 600 м
[Sc]
+9.1 +0.9 56 +7 +10 очень
холодно
1016.3 970.5 +4.3
06 14.06 СЗ 4 20 км 9/9 600 м
[Sc]
+10.9 -1.2 43 +9 +10 очень
холодно
1015.6 970.1
09 14.06 С 4
{10}
20 км 6/6 600 м
[Cu hum]
+15.4 -1.9 30 +15 +19 очень
холодно
1013.1 968.4
12 14.06 СЗ 3 20 км 6/6 600 м
[Cu med, cong]
+15.7 -2.2 29 +15 +18 очень
холодно
1011.8 967.2
15 14.06 СЗ 4
{10}
20 км 8/8 600 м
[Sc]
+13.8 -3.0 31 +13 +13 холодно 1011.7 966.7 +17.1
18 14.06 СЗ 4
{10}
10 км 10/10 600 м
[Sc]
+12.0 -0.4 42 +10 +10 холодно 1011.5 966.2
21 14.06 СЗ 2
{10}
10 км 10/10 600 м
[Sc]
+9.2 +2.5 63 +8 +8 холодно 1011.3 965.7
00 15.06 З 2 20 км {дождь} 10/10 600 м
[Sc]
+7.3 +5.1 86 +5 +5 холодно 1011.0 965.1
03 15.06 СЗ 3 20 км 9/9 600 м
[Sc]
+9.4 +4.6 72 +7 +8 очень
холодно
1010.5 965.0 +7.3 0.8
06 15.06 С 4 10 км слаб. дождь 10/10 600 м
[Sc]
+10.5 +5.2 70 +8 +8 очень
холодно
1010.2 964.8
09 15.06 СЗ 4 20 км {дождь} 6/6 600 м
[Cu med, cong]
+15.5 +1.7 39 +15 +19 очень
холодно
1008.9 964.4
12 15.06 С 3
{14}
20 км {дождь} 6/6 600 м
[Cb cap]
+15.8 +2.0 39 +15 +18 очень
холодно
1009.0 964.5
15 15.06 СЗ 3
{11}
20 км 6/6 600 м
[Sc]
+14.8 +2.2 43 +14 +15 холодно 1009.8 965.1 +16.9 0.5
18 15.06 СЗ 2 10 км ясно +10.3 +2.9 60 +9 +9 очень
холодно
1010.7 965.3
21 15.06 СЗ 3 10 км ясно +9.0 +2.9 66 +7 +7 холодно 1010.8 965.2
00 16.06 Ю 2 20 км 6/6 600 м
[Sc]
+5.5 +3.1 85 +3 +3 очень
холодно
1011.2 965.0
03 16.06 З 2 20 км 6/6 600 м
[Sc]
+11.1 +5.0 66 +10 +12 холодно 1009.9 964.7 +4.6
06 16.06 СЗ 3 20 км 9/9 600 м
[Cb calv]
+15.5 +0.1 35 +15 +16 холодно 1008.9 964.3
09 16.06 ЮЗ 3 20 км 8/8 600 м
[Cu med, cong]
+18.8 +0.7 30 +19 +22 прохладно 1007.0 963.0
12 16.06 З 5
{11}
20 км 8/4 600 м
[Cu med, cong Ci fib]
+18.7 -0.8 27 +18 +21 холодно 1006.4 962.4
15 16.06 СЗ 2 20 км 8/3 600 м
[Sc Ci fib]
+17.3 +0.5 32 +18 +18 прохладно 1006.4 962.2 +19.5
18 16.06 З 2 10 км 9/9 600 м
[Sc]
+14.7 +3.0 45 +15 +15 по сезону 1006.9 962.4
21 16.06 СЗ 2 10 км 8/8 600 м
[Sc]
+13.4 +5.2 58 +13 +13 по сезону 1006.3 961.6
00 17.06 С 2 20 км в посл. час дождь 10/10 600 м
[Sc]
+8.6 +5.6 81 +7 +7 прохладно 1007.7 962.2
03 17.06 С 3 20 км {дождь} 9/9 600 м
[Sc]
+10.9 +6.6 75 +9 +9 очень
холодно
1008.6 963.4 +8.5 1
06 17.06 С 5 20 км {дождь} 8/8 600 м
[Cu med, cong]
+14.1 +2.7 46 +13 +14 очень
холодно
1008.5 963.8
09 17.06 СЗ 4
{10}
20 км 6/6 600 м
[Cu hum]
+17.0 +0.2 32 +17 +21 холодно 1008.0 963.7
12 17.06 З 4 20 км 8/8 600 м
[Cu hum]
+18.8 -0.5 27 +19 +20 холодно 1007.2 963.2
15 17.06 З 3 20 км 4/0
[Ci fib]
+17.9 +0.1 30 +18 +19 прохладно 1007.1 963.0 +18.9
18 17.06 ЮЗ 2 10 км 8/0
[Ac trans]
+14.5 +2.3 44 +14 +14 прохладно 1007.7 963.0
21 17.06 ЮЗ 3 10 км ясно +9.7 +3.2 64 +8 +8 холодно 1006.6 961.3
00 18.06 З 1 20 км ясно +12.8 +6.5 65 +13 +13 по сезону 1006.3 961.5
03 18.06 СЗ 4-11
{11}
20 км 3/3 600 м
[Sc]
+15.6 +2.8 42 +15 +17 по сезону 1006.9 962.5 +9.2
06 18.06 СЗ 4
{12}
20 км ясно +17.4 -0.7 29 +17 +26 прохладно 1007.4 963.2

 

Местоположение метеостанции Магнитогорск (Челябинская область, Россия): широта 53.35 долгота 59.08 высота над уровнем моря 384 м.

В архиве по умолчанию представлена погода в Магнитогорске за последнюю неделю. Архивные данные за месяц целиком и за предыдущие месяцы, начиная с января 2011 года, Вы можете получить, выбрав интересующий диапазон дат из раскрывающегося списка и нажав кнопку "Ввод!".


*Определитесь, кто Вы:
робот инопланетянин человек

Внимание! Время в таблицах - всемирное. Для получения местного времени необходимо прибавить поправку, которая равна 5 ч.

Смотрите также архив погоды в соседних городах и на ближайших метеорологических станциях:

Погода в Верхнеуральске (Челябинская область, Россия) (59 км)
Погода в Кизильском (Челябинская область, Россия) (71 км)
Погода в Белорецке (Башкирия, Россия) (81 км)
Погода в Карталы (Челябинская область, Россия) (111 км)
Погода в Тукане (Башкирия, Россия) (112 км)
Погода в Старосубхангулово (Башкирия, Россия) (113 км)
Погода в Учалах (Башкирия, Россия) (115 км)
Погода в Николаевке (Башкирия, Россия) (116 км)
Погода в Бредах (Челябинская область, Россия) (133 км)
Погода в Ревети (Башкирия, Россия) (133 км)

Пояснения к столбцам:

Ветер - указаны скорость ветра в м/с - средняя за 10 мин, порывы в срок и между сроками (в фигурных скобках) и направление, откуда дует ветер: С - северный, СВ - северо-восточный, В - восточный, ЮВ - юго-восточный, Ю - южный, ЮЗ - юго-западный, З - западный, СЗ - северо-западный.
Видимость - горизонтальная дальность видимости в метрах или километрах. При видимости от 1 до 10 км при отсутствии осадков обычно наблюдается дымка, при ухудшении видимости до 1 км и менее - туман. В сухую погоду видимость может ухудшаться дымом, пылью или мглою.
Явления - указаны атмосферные явления, наблюдавшиеся в срок или в последний час перед сроком; фигурными скобками обозначены явления, наблюдавшиеся между сроками (за 1-3 часа до срока); квадратными скобками обозначены град или гололедные отложения с указанием их диаметра в мм.
Облачность - указаны через наклонную черту общая и нижняя облачность в баллах и высота нижней границы облаков в метрах; квадратными скобками обозначены формы облаков: Ci - перистые, Cs - перисто-слоистые, Cc - перисто-кучевые, Ac - высококучевые, As - высокослоистые, Sc - слоисто-кучевые, Ns - слоисто-дождевые, Cu - кучевые, Cb - кучево-дождевые. Подробнее классификацию облаков см. в Атласе облаков (PDF).
T - Температура воздуха - температура, измеренная на высоте 2 м над землей.
Td - Температура точки росы - температура, при понижении до которой содержащийся в воздухе водяной пар достигнет насыщения.
f - Относительная влажность воздуха - влажноcть воздуха, измеренная на высоте 2 м над землей.
Te - Эффективная температура - температура, которую ощущает одетый по сезону человек в тени. Характеристика душности погоды. При расчете учитывается влияние влажности воздуха и скорости ветра на теплоощущения человека.
Tes - Эффективная температура на солнце - температура, которую ощущает человек, с поправкой на солнечный нагрев. Характеристика знойности погоды. Зависит от высоты солнца над горизонтом, облачности и скорости ветра. Ночью, в пасмурную погоду, а также при ветре 12 м/с и более поправка равна нулю.
P - Атмосферное давление - приведенное к уровню моря атмосферное давление.
Po - Атмосферное давление - измеренное на уровне метеостанции атмосферное давление.
Tmin - Минимальная температура - минимум температуры воздуха на высоте 2 м над землей.
Tmax - Максимальная температура - максимум температуры воздуха на высоте 2 м над землей.
R - Количество осадков - Количество выпавших осадков за период времени, мм. При наведении курсора мыши на число - период времени, за который выпало указанное количество осадков.
R24 - Количество осадков - Количество выпавших осадков за 24 часа, мм.
S - Снежный покров - Высота снежного покрова, см. При наведении курсора мыши на число - состояние снежного покрова и степень покрытия местности в баллах.